Regional Weather Roundup
Issued by NWS

Home | Current Version | Previous Version | Text Only | Print | Product List | Glossary On
Versions: 1 2 3 4 5 6 7 8 9 10 11 12 13 14 15 16 17 18 19 20 21 22 23 24 25 26 27 28 29 30 31 32 33 34 35 36 37 38 39 40 41 42 43 44 45 46 47 48 49 50
000
ASUS43 KLSX 071459
RWRMO

WEATHER SUMMARY FOR MISSOURI
NATIONAL WEATHER SERVICE SPRINGFIELD MO
1000 AM CDT TUE JUL 07 2015

NOTE: "FAIR" INDICATES FEW OR NO CLOUDS BELOW 12,000 FEET WITH NO
       SIGNIFICANT WEATHER AND/OR OBSTRUCTIONS TO VISIBILITY.
       CURRENT SKY AND/OR WEATHER CONDITIONS ARE NOT AVAILABLE FOR
       CHILLICOTHE AND FARMINGTON.

MOZ001>031-035>038-043-044-053-054-071600-
...NORTHERN AND WESTERN MISSOURI...

CITY           SKY/WX    TMP DP  RH WIND       PRES   REMARKS
KANSAS CTY INT CLOUDY    65  59  81 N12       30.07R
KANSAS C DTWN  CLOUDY    67  60  78 N12       30.06R HAZE
LEE`S SUMMIT   CLOUDY    66  61  84 N10       30.06R HAZE
ST JOSEPH      MOSUNNY   65  56  72 MISG      30.09R
CHILLICOTHE      N/A     67  59  75 N7        30.06R
KIRKSVILLE     PTSUNNY   68  58  70 N16       30.04R HAZE

$$
MOZ066>068-077>081-088>096-101>105-071600-
...SOUTHWEST MISSOURI...

CITY           SKY/WX    TMP DP  RH WIND       PRES   REMARKS
SPRINGFIELD    LGT RAIN  76  72  87 VRB3      29.98S
JOPLIN         CLOUDY    69  67  93 N7        29.99R FOG

$$
MOZ032>034-039>042-045>050-055>058-069>072-071600-
...CENTRAL MISSOURI...

CITY           SKY/WX    TMP DP  RH WIND       PRES   REMARKS
COLUMBIA       CLOUDY    66  64  93 N12       30.00R FOG
ROLLA          CLOUDY    72  71  97 SW6       29.97R
SEDALIA        CLOUDY    64  59  83 N12       30.04R HAZE
OSAGE BEACH    CLOUDY    70  66  88 N7        29.98R

$$
MOZ051-052-059>065-071600-
...EAST CENTRAL MISSOURI...

CITY           SKY/WX    TMP DP  RH WIND       PRES   REMARKS
ST LOUIS INTL  CLOUDY    76  71  85 W8        29.94S
SPIRIT OF STL  LGT RAIN  73  71  93 NW12      29.94R FOG
ST CHARLES     CLOUDY    69  68  96 N12       29.94R FOG

$$
MOZ072>076-082>087-097>100-106>115-071600-
...SOUTH CENTRAL AND SOUTHEAST MISSOURI...

CITY           SKY/WX    TMP DP  RH WIND       PRES   REMARKS
CAPE GIRARDEAU LGT RAIN  78  75  90 SW8       29.97R
FARMINGTON     CLOUDY    72  70  94 S5        30.01S
POPLAR BLUFF   CLOUDY    80  74  81 SW12      29.97R
WEST PLAINS    CLOUDY    77  71  82 SW8       30.01R

$$



USA.gov is the U.S. government's official web portal to all federal, state and local government web resources and services.